Location: Observatory
(52.1446°N, 0.4624°W)
Time: 08:00:17
(UTC+01:00)

ISS - Pass Details

Date: 13 October 2018
Orbit: 403 x 408 km, 51.6° (Epoch: 21 October)

Event Time Altitude Azimuth Distance (km) Brightness Sun altitude
Rises 18:53:12 0° 277° (W) 2,338 2.2 -7.1°
Reaches altitude 10° 18:56:28 10° 242° (WSW) 1,472 0.2 -7.6°
Maximum altitude 18:57:36 11° 222° (SW) 1,386 -0.4 -7.7°
Drops below altitude 10° 18:58:45 10° 201° (SSW) 1,468 -0.7 -7.9°
Sets 19:01:59 0° 166° (SSE) 2,323 -0.1 -8.4°
